Regional Weather Roundup
Issued by NWS Midland/Odessa, TX

Skip options and go directly to product.
Home | Oldest Version | Next Version | Current Version | All | Text Only | Save Text | Print | Product List | Glossary On

Skip product version selection by date and time.   
799
ASUS44 KMAF 192001
RWRMAF
MIDLAND AREA WEATHER ROUNDUP
NATIONAL WEATHER SERVICE MIDLAND TX
200 PM CST SUN FEB 19 2017

...IN SOUTHWEST TEXAS AND SOUTHEAST NEW MEXICO...

CITY           SKY/WX    TMP DP  RH WIND       PRES   REMARKS
ALPINE         CLOUDY    59  27  29 SW16G23   29.97F
ANDREWS        FAIR      65  34  31 SW21G29   29.85F
ARTESIA        CLOUDY    59  28  31 SW22G29   29.84F
BIG SPRING     MOSUNNY   71  36  27 W14G23    29.84F
CARLSBAD       CLOUDY    60  31  33 SW12      29.84F
DRYDEN           N/A     70  39  32 W16G23    29.86R
FORT STOCKTON  LGT RAIN  56  46  69 S24G33    29.89R
GUAD PASS      MOSUNNY   54  28  36 W26G36    29.90F
HOBBS          MOSUNNY   59  32  36 S15G25    29.84F
MARFA          PTSUNNY   57  24  28 SW18      29.94F
MIDLAND AIRPK  CLOUDY    70  33  25 SW16G24   29.85S
MIDLAND INTL   CLOUDY    69  33  26 W15G25    29.84F
ODESSA         CLOUDY    67  32  27 W15G23    29.86S
PECOS          CLOUDY    68  31  24 W7        29.85F
PRESIDIO       FAIR      67  29  24 SW10G20   29.90F
SEMINOLE       CLOUDY    63  33  32 SW15G25   29.84F
SNYDER         MOSUNNY   72  53  50 SW12      29.81F
WINK           CLOUDY    65  34  31 SW6       29.84F
$$
...OTHER STATIONS IN TEXAS...

CITY           SKY/WX    TMP DP  RH WIND       PRES   REMARKS
ABILENE        PTSUNNY   70  62  76 S10       29.82F
AMARILLO       CLOUDY    66  44  45 S15       29.80F
AUSTIN         CLOUDY    80  66  62 SE15      29.80F
BROWNSVILLE    MOSUNNY   86  71  60 S26G35    29.76F
CORPUS CHRISTI CLOUDY    79  71  76 SE26      29.79F
DALLAS FTW     CLOUDY    75  66  73 SE12      29.86F
DEL RIO        PTSUNNY   76  62  62 S6        29.77F
EL PASO        MOSUNNY   58  26  29 W17G25    29.91F
HOUSTON INT    PTSUNNY   78  67  68 SE18      29.90F
LUBBOCK        PTSUNNY   69  35  28 SW14      29.80F
SAN ANGELO     MOSUNNY   77  56  48 SE7       29.80F
SAN ANTONIO    PTSUNNY   80  66  62 SE24      29.80F
WACO           CLOUDY    77  67  71 SE15G24   29.84F
WICHITA FALLS  NOT AVBL
$$
...OTHER LOCATIONS IN NEW MEXICO...

CITY           SKY/WX    TMP DP  RH WIND       PRES   REMARKS
ALAMAGORDO     PTSUNNY   54  28  37 W13G23    29.93R
ALBUQUERQUE    PTSUNNY   49  35  58 S5        29.86F
CANNON AFB     CLOUDY    57  41  54 SW9       29.82R
CLOVIS         CLOUDY    55  41  58 S9        29.83R
HOLLOMAN AFB   MOSUNNY   55  31  39 W10       29.95S
ROSWELL        MOSUNNY   61  23  23 SW17G24     N/A
RUIDOSO        CLOUDY    45  19  36 SW28G36   29.89F WCI  35
SANTA FE       CLOUDY    49  31  49 W14G22    29.83F
TRUTH OR CONSE CLOUDY    53  26  35 W8        29.89F
TUCUMCARI      CLOUDY    60  35  39 SW17      29.79F
$$

  • National Weather Service
  • Southern Region Headquarters
  • 819 Taylor Street, Room 10A06
  • Fort Worth, TX 76102
  • Page Author: NWS Fort Worth
  • Web Master: SR-SRH.Webmaster@noaa.gov
  •  
  • Page last modified: 30-Sep-2016 6:36 PM UTC
USA.gov is the U.S. government's official web portal to all federal, state and local government web resources and services.